GW1083 Weather Reports


time (UTC)temp
C
wind
direction
speed
KPH
gust
KPH
rain 1hr
cm
rain 24hr
cm
rain mn
cm
humidity
%
barometer
mb
20260510182501 23 86 0.0 321.9 0.00 0.00 0.00 63 457.7
20260510182000 23 78 0.0 321.9 0.00 0.00 0.00 63 476.9
20260510181459 24 128 0.0 321.9 0.00 0.00 0.00 61 498.0
20260510180958 25 63 0.0 321.9 0.00 0.00 0.00 60 436.8
20260510175951 25 110 0.0 321.9 0.00 0.00 0.00 63 529.3
20260510174418 25 121 0.0 321.9 0.00 0.00 0.00 63 510.4
20260510173917 25 109 0.0 321.9 0.00 0.00 0.00 60 552.3
20260510172910 26 164 0.0 321.9 0.00 0.00 0.00 61 658.9
20260510172410 25 188 0.0 321.9 0.00 0.00 0.00 61 647.9
20260510171909 25 190 0.0 321.9 0.00 0.00 0.00 61 641.3
20260510171409 25 155 0.0 321.9 0.00 0.00 0.00 61 570.8
20260510170909 24 154 0.0 321.9 0.00 0.00 0.00 65 545.6
20260510170409 24 97 0.0 321.9 0.00 0.00 0.00 67 546.9
20260510165909 23 101 0.0 321.9 0.00 0.00 0.00 66 562.6
20260510165408 23 172 0.0 321.9 0.00 0.00 0.00 69 580.1
20260510164908 22 109 0.0 321.9 0.00 0.00 0.00 69 484.4
20260510164407 22 107 0.0 321.9 0.00 0.00 0.00 67 508.1
20260510163907 22 94 0.0 321.9 0.00 0.00 0.00 68 565.9
20260510162334 22 106 0.0 321.9 0.00 0.00 0.00 67 619.9
20260510161834 22 218 0.0 321.9 0.00 0.00 0.00 70 629.1
20260510160827 21 102 0.0 321.9 0.00 0.00 0.00 70 508.0
20260510160326 22 158 0.0 321.9 0.00 0.00 0.00 71 576.3
20260510155309 21 82 0.0 321.9 0.00 0.00 0.00 72 384.7
20260510154808 21 81 0.0 321.9 0.00 0.00 0.00 77 379.1
20260510153752 21 67 0.0 321.9 0.00 0.00 0.00 76 379.6
20260510153251 20 84 0.0 321.9 0.00 0.00 0.00 78 391.3
20260510152234 20 71 0.0 321.9 0.00 0.00 0.00 77 357.4
20260510151733 20 65 0.0 321.9 0.00 0.00 0.00 78 358.4
20260510151232 20 60 0.0 321.9 0.00 0.00 0.00 80 371.3
20260510150731 20 76 0.0 321.9 0.00 0.00 0.00 79 390.4
20260510150230 20 81 0.0 321.9 0.00 0.00 0.00 81 386.1
20260510145729 19 77 0.0 321.9 0.00 0.00 0.00 81 383.8
20260510143651 19 75 0.0 321.9 0.00 0.00 0.00 80 393.1
20260510143149 18 76 0.0 321.9 0.00 0.00 0.00 81 411.2
20260510142648 18 89 0.0 321.9 0.00 0.00 0.00 82 433.0
20260510142147 18 89 0.0 321.9 0.00 0.00 0.00 82 449.4
20260510141645 18 89 0.0 321.9 0.00 0.00 0.00 83 476.4
20260510141143 18 102 0.0 321.9 0.00 0.00 0.00 83 527.6
20260510140644 17 104 0.0 321.9 0.00 0.00 0.00 83 587.8
20260510140141 17 126 0.0 321.9 0.00 0.00 0.00 83 709.4
20260510135640 17 241 0.0 321.9 0.00 0.00 0.00 84 708.7
20260510135139 17 241 0.0 321.9 0.00 0.00 0.00 84 559.3
20260510134132 17 35 0.0 321.9 0.00 0.00 0.00 83 305.2
20260510133631 17 38 0.0 321.9 0.00 0.00 0.00 84 348.9
20260510131603 16 0 0.0 321.9 0.00 0.00 0.00 87 1217.7
20260510131102 16 0 0.0 321.9 0.00 0.00 0.00 88 1209.3
20260510130602 15 0 0.0 321.9 0.00 0.00 0.00 89 1194.9
20260510125546 15 0 0.0 321.9 0.00 0.00 0.00 92 1113.3
20260510124539 14 242 0.0 321.9 0.00 0.00 0.00 94 874.8
20260510123006 13 242 0.0 321.9 0.00 0.00 0.00 96 876.0
20260510122505 13 242 0.0 321.9 0.00 0.00 0.00 96 876.0
20260510122005 13 242 0.0 321.9 0.00 0.00 0.00 96 876.4
20260510120958 13 242 0.0 321.9 0.00 0.00 0.00 96 876.9
20260510120458 12 242 0.0 321.9 0.00 0.00 0.00 96 877.3
20260510115957 12 242 0.0 321.9 0.00 0.00 0.00 97 879.1
20260510115456 12 242 0.0 321.9 0.00 0.00 0.00 97 881.6
20260510114955 12 242 0.0 321.9 0.00 0.00 0.00 97 886.4
20260510114454 12 242 0.0 321.9 0.00 0.00 0.00 97 896.8
20260510113953 12 255 0.0 321.9 0.00 0.00 0.00 97 898.1
20260510113453 12 264 0.0 321.9 0.00 0.00 0.00 97 930.2
20260510112951 12 272 0.0 321.9 0.00 0.00 0.00 97 913.1
20260510112450 12 273 0.0 321.9 0.00 0.00 0.00 97 863.7
20260510111949 11 219 0.0 321.9 0.00 0.00 0.00 97 806.3
20260510111448 11 219 0.0 321.9 0.00 0.00 0.00 97 806.0
20260510110948 11 219 0.0 321.9 0.00 0.00 0.00 97 804.3
20260510110446 11 219 0.0 321.9 0.00 0.00 0.00 97 800.3
20260510105945 11 209 0.0 321.9 0.00 0.00 0.00 97 792.8
20260510105445 11 209 0.0 321.9 0.00 0.00 0.00 96 807.5
20260510104943 11 209 0.0 321.9 0.00 0.00 0.00 96 835.1
20260510104443 11 209 0.0 321.9 0.00 0.00 0.00 96 891.1
20260510103941 11 297 0.0 321.9 0.00 0.00 0.00 96 1003.9
20260510103441 11 295 0.0 321.9 0.00 0.00 0.00 96 973.2
20260510102940 11 262 0.0 321.9 0.00 0.00 0.00 95 931.1
20260510102438 11 262 0.0 321.9 0.00 0.00 0.00 95 929.0
20260510101937 11 262 0.0 321.9 0.00 0.00 0.00 95 925.6
20260510100931 11 262 0.0 321.9 0.00 0.00 0.00 95 907.2
20260510100430 11 262 0.0 321.9 0.00 0.00 0.00 95 885.2
20260510095928 11 247 0.0 321.9 0.00 0.00 0.00 95 842.3
20260510095427 11 228 0.0 321.9 0.00 0.00 0.00 95 823.8
20260510094412 11 228 0.0 321.9 0.00 0.00 0.00 95 812.5
20260510093911 11 228 0.0 321.9 0.00 0.00 0.00 95 799.6
20260510093412 11 228 0.0 321.9 0.00 0.00 0.00 95 774.9
20260510092912 11 228 0.0 321.9 0.00 0.00 0.00 95 726.6
20260510092413 11 228 0.0 321.9 0.00 0.00 0.00 95 633.5
20260510091911 11 166 0.0 321.9 0.00 0.00 0.00 95 450.4
20260510091412 11 55 0.0 321.9 0.00 0.00 0.00 95 353.7
20260510090912 11 55 0.0 321.9 0.00 0.00 0.00 95 389.9
20260510085906 11 55 0.0 321.9 0.00 0.00 0.00 95 595.7
20260510084859 12 87 0.0 321.9 0.00 0.00 0.00 96 647.4
20260510084358 12 221 0.0 321.9 0.00 0.00 0.00 95 776.3
20260510083857 12 131 0.0 321.9 0.00 0.00 0.00 95 710.3
20260510083356 11 168 0.0 321.9 0.00 0.00 0.00 95 739.0
20260510082855 11 300 0.0 321.9 0.00 0.00 0.00 94 833.4
20260510082354 11 254 0.0 321.9 0.00 0.00 0.00 94 690.4
20260510081853 11 212 0.0 321.9 0.00 0.00 0.00 94 501.6
20260510081351 11 92 0.0 321.9 0.00 0.00 0.00 93 421.4
20260510080851 11 92 0.0 321.9 0.00 0.00 0.00 93 421.3
20260510080350 11 92 0.0 321.9 0.00 0.00 0.00 93 421.3
20260510075848 11 92 0.0 321.9 0.00 0.00 0.00 93 421.4
20260510075348 11 92 0.0 321.9 0.00 0.00 0.00 93 421.2
20260510074847 12 92 0.0 321.9 0.00 0.00 0.00 93 421.2
20260510074346 12 92 0.0 321.9 0.00 0.00 0.00 93 421.4
20260510073845 12 92 0.0 321.9 0.00 0.00 0.00 93 421.6
20260510073344 12 92 0.0 321.9 0.00 0.00 0.00 93 421.3
20260510072337 12 92 0.0 321.9 0.00 0.00 0.00 93 421.2
20260510071320 12 92 0.0 321.9 0.00 0.00 0.00 92 420.9
20260510070819 12 92 0.0 321.9 0.00 0.00 0.00 92 420.7
20260510070318 12 92 0.0 321.9 0.00 0.00 0.00 92 420.4
20260510065305 12 92 0.0 321.9 0.00 0.00 0.00 92 420.0
20260510064801 12 92 0.0 321.9 0.00 0.00 0.00 92 420.1
20260510064259 12 92 0.0 321.9 0.00 0.00 0.00 92 419.9
20260510063758 12 92 0.0 321.9 0.00 0.00 0.00 92 419.1
20260510063257 12 92 0.0 321.9 0.00 0.00 0.00 91 418.5
20260510062250 12 92 0.0 321.9 0.00 0.00 0.00 91 416.3
20260510061749 12 92 0.0 321.9 0.00 0.00 0.00 91 412.8
20260510061248 13 92 0.0 321.9 0.00 0.00 0.00 91 406.7
20260510060747 13 92 0.0 321.9 0.00 0.00 0.00 91 395.6
20260510060247 13 92 0.0 321.9 0.00 0.00 0.00 91 373.0
20260510055746 13 63 0.0 321.9 0.00 0.00 0.00 91 333.1
20260510054739 13 63 0.0 321.9 0.00 0.00 0.00 90 333.1
20260510053722 13 63 0.0 321.9 0.00 0.00 0.00 90 333.1
20260510053221 13 63 0.0 321.9 0.00 0.00 0.00 90 333.3
20260510052720 13 63 0.0 321.9 0.00 0.00 0.00 90 333.0
20260510052219 13 63 0.0 321.9 0.00 0.00 0.00 90 332.8
20260510051717 13 63 0.0 321.9 0.00 0.00 0.00 90 332.9
20260510050701 13 63 0.0 321.9 0.00 0.00 0.00 89 333.2
20260510045138 13 63 0.0 321.9 0.00 0.00 0.00 89 333.4
20260510044131 13 63 0.0 321.9 0.00 0.00 0.00 89 333.6
20260510043630 13 63 0.0 321.9 0.00 0.00 0.00 89 333.6
20260510043129 13 63 0.0 321.9 0.00 0.00 0.00 89 333.6
20260510042629 14 63 0.0 321.9 0.00 0.00 0.00 89 333.3
20260510042128 14 63 0.0 321.9 0.00 0.00 0.00 88 333.5
20260510041627 14 63 0.0 321.9 0.00 0.00 0.00 88 333.2
20260510041126 14 63 0.0 321.9 0.00 0.00 0.00 88 333.1
20260510040625 14 63 0.0 321.9 0.00 0.00 0.00 88 333.4
20260510040124 14 63 0.0 321.9 0.00 0.00 0.00 88 333.6
20260510034602 14 63 0.0 321.9 0.00 0.00 0.00 87 333.2
20260510034101 14 63 0.0 321.9 0.00 0.00 0.00 87 332.9
20260510033559 14 63 0.0 321.9 0.00 0.00 0.00 86 332.6
20260510033058 14 63 0.0 321.9 0.00 0.00 0.00 85 332.7
20260510032557 15 63 0.0 321.9 0.00 0.00 0.00 85 333.0
20260510032056 15 63 0.0 321.9 0.00 0.00 0.00 84 332.9
20260510031555 15 63 0.0 321.9 0.00 0.00 0.00 84 332.9
20260510031054 15 63 0.0 321.9 0.00 0.00 0.00 84 332.8
20260510030553 15 63 0.0 321.9 0.00 0.00 0.00 83 332.5
20260510030052 15 63 0.0 321.9 0.00 0.00 0.00 83 332.5
20260510024540 15 63 0.0 321.9 0.00 0.00 0.00 84 333.2
20260510023019 16 63 0.0 321.9 0.00 0.00 0.00 83 333.5
20260510022003 16 63 0.0 321.9 0.00 0.00 0.00 83 332.8
20260510021503 16 63 0.0 321.9 0.00 0.00 0.00 83 332.8
20260510021002 16 63 0.0 321.9 0.00 0.00 0.00 83 333.1
20260510015955 16 63 0.0 321.9 0.00 0.00 0.00 83 333.1
20260510015454 16 63 0.0 321.9 0.00 0.00 0.00 84 333.1
20260510014447 16 63 0.0 321.9 0.00 0.00 0.00 82 332.5
20260510013946 16 63 0.0 321.9 0.00 0.00 0.00 83 331.4
20260510013445 16 63 0.0 321.9 0.00 0.00 0.00 83 329.3
20260510012944 16 63 0.0 321.9 0.00 0.00 0.00 82 325.7
20260510012443 16 63 0.0 321.9 0.00 0.00 0.00 82 319.1
20260510011942 17 62 0.0 321.9 0.00 0.00 0.00 82 303.5
20260510011441 17 49 0.0 321.9 0.00 0.00 0.00 82 290.0
20260510010939 17 49 0.0 321.9 0.00 0.00 0.00 83 288.4
20260510010438 17 53 0.0 321.9 0.00 0.00 0.00 81 285.5
20260510005937 17 46 0.0 321.9 0.00 0.00 0.00 81 274.6
20260510003332 17 42 0.0 321.9 0.00 0.00 0.00 78 267.1
20260510002314 17 43 0.0 321.9 0.00 0.00 0.00 77 259.2
20260510001258 18 38 0.0 321.9 0.00 0.00 0.00 77 257.6
20260510000758 18 38 0.0 321.9 0.00 0.00 0.00 77 258.0
20260510000257 18 38 0.0 321.9 0.00 0.00 0.00 76 258.1
20260509235756 18 38 0.0 321.9 0.00 0.00 0.00 76 258.1
20260509235255 18 38 0.0 321.9 0.00 0.00 0.00 76 258.2
20260509234754 18 38 0.0 321.9 0.00 0.00 0.00 75 258.1
20260509234254 18 38 0.0 321.9 0.00 0.00 0.00 75 258.2
20260509233754 18 38 0.0 321.9 0.00 0.00 0.00 75 258.3
20260509233254 18 38 0.0 321.9 0.00 0.00 0.00 75 258.8
20260509232754 18 38 0.0 321.9 0.00 0.00 0.00 74 259.1
20260509231738 18 38 0.0 321.9 0.00 0.00 0.00 75 260.0
20260509231237 19 38 0.0 321.9 0.00 0.00 0.00 74 261.1
20260509230736 19 38 0.0 321.9 0.00 0.00 0.00 73 263.8
20260509230235 19 38 0.0 321.9 0.00 0.00 0.00 73 269.1
20260509225734 19 42 0.0 321.9 0.00 0.00 0.00 72 279.8
20260509225233 19 44 0.0 321.9 0.00 0.00 0.00 72 285.6
20260509224732 19 44 0.0 321.9 0.00 0.00 0.00 72 292.5
20260509224230 20 45 0.0 321.9 0.00 0.00 0.00 72 306.6
20260509223729 20 55 0.0 321.9 0.00 0.00 0.00 72 331.7
20260509223228 20 64 0.0 321.9 0.00 0.00 0.00 69 342.2
20260509222727 20 65 0.0 321.9 0.00 0.00 0.00 70 348.5
20260509222226 20 69 0.0 321.9 0.00 0.00 0.00 71 353.8
20260509221219 20 69 0.0 321.9 0.00 0.00 0.00 71 360.1
20260509220718 20 73 0.0 321.9 0.00 0.00 0.00 71 363.1
20260509215711 20 73 0.0 321.9 0.00 0.00 0.00 72 363.8
20260509215210 20 73 0.0 321.9 0.00 0.00 0.00 71 364.3
20260509214709 20 73 0.0 321.9 0.00 0.00 0.00 71 364.2
20260509214209 20 73 0.0 321.9 0.00 0.00 0.00 72 364.4
20260509213709 20 73 0.0 321.9 0.00 0.00 0.00 71 364.6
20260509212702 20 73 0.0 321.9 0.00 0.00 0.00 70 364.8
20260509212202 20 73 0.0 321.9 0.00 0.00 0.00 70 363.9
20260509211701 19 73 0.0 321.9 0.00 0.00 0.00 71 362.4
20260509211200 20 73 0.0 321.9 0.00 0.00 0.00 70 361.5
20260509210659 20 73 0.0 321.9 0.00 0.00 0.00 70 360.7
20260509205652 20 73 0.0 321.9 0.00 0.00 0.00 68 360.3
20260509205151 20 67 0.0 321.9 0.00 0.00 0.00 71 363.0
20260509204651 20 75 0.0 321.9 0.00 0.00 0.00 70 367.5
20260509204151 20 76 0.0 321.9 0.00 0.00 0.00 70 366.0
20260509203650 20 73 0.0 321.9 0.00 0.00 0.00 70 359.1
20260509202643 20 77 0.0 321.9 0.00 0.00 0.00 68 361.8
20260509202142 20 73 0.0 321.9 0.00 0.00 0.00 68 349.6
20260509201641 20 58 0.0 321.9 0.00 0.00 0.00 67 348.0
20260509200634 20 45 0.0 321.9 0.00 0.00 0.00 68 435.2
20260509200134 20 150 0.0 321.9 0.00 0.00 0.00 68 436.0
20260509195632 20 78 0.0 321.9 0.00 0.00 0.00 69 373.4
20260509195133 20 72 0.0 321.9 0.00 0.00 0.00 69 364.7
20260509194631 20 71 0.0 321.9 0.00 0.00 0.00 67 369.4
20260509193615 20 84 0.0 321.9 0.00 0.00 0.00 66 392.5
20260509193114 20 84 0.0 321.9 0.00 0.00 0.00 67 388.8
20260509192057 20 70 0.0 321.9 0.00 0.00 0.00 67 362.7
20260509191556 20 63 0.0 321.9 0.00 0.00 0.00 66 322.9
20260509191056 19 41 0.0 321.9 0.00 0.00 0.00 67 334.3
20260509190555 20 41 0.0 321.9 0.00 0.00 0.00 67 395.8
20260509190053 20 40 0.0 321.9 0.00 0.00 0.00 66 520.3
20260509185552 20 352 0.0 321.9 0.00 0.00 0.00 68 527.5
20260509184029 18 54 0.0 321.9 0.00 0.00 0.00 71 338.1
20260509183528 18 53 0.0 321.9 0.00 0.00 0.00 70 361.8